Location: Caltech
(34.1382°N, 118.1253°W)
Time: 02:14:32
(UTC-08:00)

Saudisat 1A - Visible Passes

Search period start: 25 January 2015 00:00
Search period end: 04 February 2015 00:00
Orbit: 589 x 613 km, 64.6° (Epoch: 24 January)

Date Brightness Start Highest point End Pass type
(mag) Time Alt. Az. Time Alt. Az. Time Alt. Az.
25 Jan 11.1 03:58:56 10° SE 04:00:16 12° ESE 04:01:53 10° E visible
25 Jan 8.0 05:35:23 11° SW 05:39:24 54° WNW 05:43:42 10° NNE visible
26 Jan 10.2 04:12:09 23° E 04:12:09 23° E 04:15:10 10° ENE visible
26 Jan 8.9 05:49:02 20° W 05:51:05 28° NW 05:54:52 10° N visible
27 Jan 9.8 04:25:00 28° ENE 04:25:00 28° ENE 04:27:17 10° NE visible
27 Jan 9.6 06:01:50 15° WNW 06:02:55 16° NW 06:05:32 10° N visible
28 Jan 9.9 04:37:22 22° NNE 04:37:22 22° NNE 04:38:56 10° NNE visible
29 Jan 10.2 04:49:25 15° N 04:49:25 15° N 04:50:17 10° NNE visible
30 Jan 10.5 05:01:14 10° N 05:01:14 10° N 05:01:15 10° N visible
